Regional Weather Roundup
Issued by NWS Goodland, KS

Home | Current Version | Previous Version | Graphics & Text | Print | Product List | Glossary On
Versions: 1 2 3 4 5 6 7 8 9 10 11 12 13 14 15 16 17 18 19 20 21 22 23 24 25 26 27 28 29 30 31 32 33 34 35 36 37 38 39 40 41 42 43 44 45 46 47 48 49 50
000
ASUS43 KGLD 201759
RWRGLD

GOODLAND FORECAST AREA HOURLY WEATHER ROUNDUP
NATIONAL WEATHER SERVICE GOODLAND KS
1100 AM MST FRI JAN 20 2017

...OFFICIAL OBSERVATIONS...

CITY           SKY/WX    TMP DP  RH WIND       PRES   REMARKS
GOODLAND KS    CLOUDY    32  30  92 NW8       29.42F
HILL CITY KS   CLOUDY    42  42 100 S6        29.46F FOG
IMPERIAL NEB   CLOUDY    30  28  92 W3        29.42F
MCCOOK NEB     CLOUDY    36  35  96 W9        29.44F
AKRON CO       CLOUDY    36  29  75 NW10      29.43F
BURLINGTON CO  CLOUDY    39  30  70 N13       29.43S
LIMON CO       CLOUDY    34  30  85 W8        29.45F
$$

...UNOFFICIAL OBSERVATIONS...

CITY           SKY/WX    TMP DP  RH WIND       PRES   REMARKS
LENORA KS        N/A     40  32  73 CALM        N/A
NORTON KS      FOG       39  37  93 S6        29.44F VSB 1/4
SHARON SPRINGS   N/A     34  33  96 CALM        N/A
KIT CARSON CO    N/A     38  28  68 MISG        N/A
YUMA CO        FAIR      36  28  75 NW8       29.42F
$$



USA.gov is the U.S. government's official web portal to all federal, state and local government web resources and services.